This demonstration page uses our WeatherBlox Daily Observations layout. Learn more.

Hourly Observations for June 17, 2015

Temp ( °F °C ) Dew Point ( °F °C ) Humidity (%) Winds ( mph kmh ) Pressure ( in mb ) Visibility ( mi km ) Precip ( " mm )
4:15 am 04:15 Partly Cloudy 62 16.5 58 14.6 89 89 ESE 14 22 29.94 1014 10 16.0934 0 0
4:55 am 04:55 Clear 62 16.4 58 14.6 89 89 S 6 9 29.94 1014 10 16.0934 0 0
5:15 am 05:15 Clear 61 16.1 58 14.6 91 91 S 7 11 29.94 1014 10 16.0934 0 0
5:35 am 05:35 Clear 61 16 58 14.5 91 91 S 7 11 29.94 1014 10 16.0934 0 0
5:55 am 05:55 Clear 61 16 58 14.5 91 91 S 5 7 29.94 1014 10 16.0934 0 0
6:15 am 06:15 Sunny 60 15.5 57 14.1 91 91 Calm 29.94 1014 10 16.0934 0 0
6:35 am 06:35 Sunny 59 15.1 57 14.1 94 94 N 7 11 30 1016 10 16.0934 0 0
6:55 am 06:55 Sunny 59 15.2 57 14.1 93 93 NNW 6 9 30 1016 10 16.0934 0 0
7:15 am 07:15 Sunny 60 15.6 58 14.6 94 94 NNW 6 9 30 1016 10 16.0934 0 0
7:35 am 07:35 Sunny 62 16.5 59 15.2 92 92 NNW 7 11 30 1016 10 16.0934 0 0
7:55 am 07:55 Sunny 63 17.2 60 15.5 90 90 N 7 11 30 1016 10 16.0934 0 0
8:15 am 08:15 Sunny 64 18 60 15.5 85 85 NNW 8 13 30 1016 10 16.0934 0 0
8:35 am 08:35 Sunny 65 18.5 60 15.7 84 84 N 6 9 29.97 1015 10 16.0934 0 0
8:55 am 08:55 Sunny 66 19.1 61 15.9 82 82 N 8 13 30 1016 10 16.0934 0 0
9:15 am 09:15 Sunny 67 19.4 61 16 81 81 N 10 17 30 1016 10 16.0934 0 0
9:35 am 09:35 Sunny 68 20 61 16.3 79 79 N 7 11 30 1016 10 16.0934 0 0
9:55 am 09:55 Sunny 69 20.5 62 16.5 78 78 NNW 6 9 29.97 1015 10 16.0934 0 0
10:15 am 10:15 Sunny 70 21 61 16.2 74 74 N 8 13 29.97 1015 10 16.0934 0 0
10:35 am 10:35 Sunny 71 21.4 62 16.5 74 74 N 7 11 29.97 1015 10 16.0934 0 0
10:55 am 10:55 Sunny 72 22.1 62 16.4 70 70 N 8 13 29.97 1015 10 16.0934 0 0
11:15 am 11:15 Sunny 73 22.8 63 17 70 70 N 8 13 29.97 1015 10 16.0934 0 0
11:35 am 11:35 Sunny 74 23.3 62 16.8 67 67 N 9 15 29.97 1015 10 16.0934 0 0
11:55 am 11:55 Sunny 75 23.7 62 16.6 65 65 NNE 8 13 29.94 1014 10 16.0934 0 0
12:15 pm 12:15 Sunny 75 24 62 16.7 64 64 ENE 5 7 29.94 1014 10 16.0934 0 0
12:35 pm 12:35 Sunny 76 24.5 63 17 63 63 NNE 8 13 29.94 1014 10 16.0934 0 0
12:55 pm 12:55 Sunny 77 24.8 63 17 62 62 NE 10 17 29.94 1014 10 16.0934 0 0
1:15 pm 13:15 Sunny 78 25.3 62 16.7 59 59 ENE 8 13 29.94 1014 10 16.0934 0 0
1:35 pm 13:35 Sunny 77 25.2 61 16 57 57 NE 8 13 29.94 1014 10 16.0934 0 0
1:55 pm 13:55 Sunny 78 25.7 61 15.9 55 55 NE 6 9 29.94 1014 10 16.0934 0 0
2:15 pm 14:15 Partly Cloudy 78 25.6 62 16.7 58 58 E 9 15 29.91 1013 10 16.0934 0 0
2:35 pm 14:35 Partly Cloudy 79 26.1 61 16.1 54 54 E 6 9 29.91 1013 10 16.0934 0 0
2:55 pm 14:55 Partly Cloudy 79 26.3 63 17 57 57 ENE 10 17 29.91 1013 10 16.0934 0 0
3:15 pm 15:15 Partly Cloudy 80 26.5 61 16.2 53 53 ENE 9 15 29.91 1013 10 16.0934 0 0
3:35 pm 15:35 Partly Cloudy 78 25.6 62 16.4 57 57 ENE 8 13 29.91 1013 10 16.0934 0 0
3:55 pm 15:55 Mostly Cloudy 78 25.5 62 16.6 58 58 ENE 6 9 29.91 1013 10 16.0934 0 0
4:15 pm 16:15 Partly Cloudy 80 26.4 62 16.4 54 54 E 6 9 29.91 1013 10 16.0934 0 0
4:35 pm 16:35 Partly Cloudy 80 26.4 63 17.3 57 57 ENE 3 6 29.91 1013 10 16.0934 0 0
4:55 pm 16:55 Partly Cloudy 80 26.4 65 18.1 60 60 E 6 9 29.91 1013 10 16.0934 0 0
5:15 pm 17:15 Partly Cloudy 80 26.5 64 17.8 59 59 ENE 9 15 29.85 1011 10 16.0934 0 0
5:35 pm 17:35 Partly Cloudy 80 26.7 64 18 59 59 E 8 13 29.85 1011 10 16.0934 0 0
5:55 pm 17:55 Partly Cloudy 80 26.5 63 17.4 57 57 ENE 3 6 29.85 1011 10 16.0934 0 0
6:15 pm 18:15 Partly Cloudy 78 25.7 63 17.3 60 60 E 7 11 29.88 1012 10 16.0934 0 0
6:35 pm 18:35 Partly Cloudy 80 26.5 63 17.1 56 56 ENE 6 9 29.85 1011 10 16.0934 0 0
6:55 pm 18:55 Partly Cloudy 79 26.1 64 17.5 59 59 ENE 7 11 29.88 1012 10 16.0934 0 0
7:15 pm 19:15 Sunny 79 26.1 64 17.5 59 59 ESE 8 13 29.88 1012 10 16.0934 0 0
7:35 pm 19:35 Sunny 78 25.8 64 17.6 61 61 E 7 11 29.88 1012 10 16.0934 0 0
7:55 pm 19:55 Sunny 78 25.5 65 18.1 64 64 E 7 11 29.88 1012 10 16.0934 0 0
8:15 pm 20:15 Sunny 77 25.1 65 18.1 65 65 E 6 9 29.88 1012 10 16.0934 0 0
8:35 pm 20:35 Sunny 76 24.5 65 18.3 68 68 E 5 7 29.88 1012 10 16.0934 0 0
8:55 pm 20:55 Sunny 74 23.4 66 18.8 75 75 ENE 6 9 29.91 1013 10 16.0934 0 0
9:15 pm 21:15 Mostly Cloudy 73 22.6 67 19.3 82 82 ENE 6 9 29.91 1013 10 16.0934 0 0
9:35 pm 21:35 Mostly Cloudy 72 22.3 66 19.1 82 82 ENE 7 11 29.91 1013 10 16.0934 0 0
9:55 pm 21:55 Partly Cloudy 71 21.5 66 19 86 86 ENE 7 11 29.91 1013 10 16.0934 0 0
10:15 pm 22:15 Clear 71 21.4 66 19 86 86 ENE 7 11 29.91 1013 10 16.0934 0 0
10:35 pm 22:35 Mostly Cloudy 70 21.1 66 19 88 88 ENE 6 9 29.94 1014 10 16.0934 0 0
10:55 pm 22:55 Partly Cloudy 69 20.8 66 18.8 88 88 E 6 9 29.94 1014 10 16.0934 0 0
11:15 pm 23:15 Clear 70 21 66 18.8 87 87 E 6 9 29.94 1014 10 16.0934 0 0
11:35 pm 23:35 Clear 69 20.4 65 18.5 89 89 E 3 6 29.94 1014 10 16.0934 0 0
11:55 pm 23:55 Clear 68 20.1 65 18.5 91 91 E 3 6 29.94 1014 10 16.0934 0 0

Powered by AerisWeather